START_TIME,STEP,MOV.,EG07,t_acc.,EG08,t_acc.,EG09,t_acc.,EB05,t_acc.,EBP05,t_acc.
1981-08-24 09:02:29.300 ,0,0,,0,,0,,0,,0,,0
1981-08-24 09:02:30.500 ,0,0,,0,,0,,0,,0,,0
1981-08-24 09:02:31.700 ,0,0,,0,,0,,0,,0,,0
1981-08-24 09:02:32.900 ,0,0,,0,,0,,0,,0,,0
1981-08-24 09:02:34.100 ,0,0,,0,,0,,0,,0,,0
1981-08-24 09:02:35.300 ,0,0,0.,1.2,0.,1.2,0.,1.2,,0.0,,0.0
1981-08-24 09:02:36.500 ,0,0,1.,1.2,0.,1.2,0.,1.2,,0.0,,0.0
1981-08-24 09:02:37.700 ,0,0,0.,1.2,0.,1.2,0.,1.2,,0.0,,0.0
1981-08-24 09:02:38.900 ,0,0,0.,1.2,0.,1.2,0.,1.2,,0.0,,0.0
1981-08-24 09:02:40.100 ,0,0,0.,1.2,0.,1.2,0.,1.2,,0.0,,0.0
1981-08-24 09:02:41.300 ,0,0,0.,1.2,0.,1.2,0.,1.2,,0.0,,0.0
1981-08-24 09:02:42.500 ,0,0,0.,1.2,0.,1.2,0.,1.2,,0.0,,0.0
1981-08-24 09:02:43.700 ,0,0,0.,1.2,0.,1.2,0.,1.2,,0.0,,0.0
1981-08-24 09:02:44.900 ,0,0,0.,1.2,0.,1.2,0.,1.2,,0.0,,0.0
1981-08-24 09:02:46.100 ,0,0,0.,1.2,0.,1.2,0.,1.2,,0.0,,0.0
1981-08-24 09:02:47.300 ,0,0,0.,1.2,0.,1.2,0.,1.2,,0.0,,0.0
1981-08-24 09:02:48.500 ,0,0,0.,1.2,0.,1.2,0.,1.2,,0.0,,0.0
1981-08-24 09:02:49.700 ,0,0,0.,1.2,0.,1.2,0.,1.2,,0.0,,0.0
1981-08-24 09:02:50.900 ,0,0,0.,1.2,0.,1.2,0.,1.2,,0.0,,0.0
1981-08-24 09:02:52.100 ,0,0,0.,1.2,0.,1.2,0.,1.2,,0.0,,0.0
1981-08-24 09:02:47.900 ,1,0,0.,1.2,0.,1.2,0.,1.2,,0.0,,0.0
1981-08-24 09:02:49.100 ,1,0,0.,1.2,0.,1.2,0.,1.2,,0.0,,0.0
1981-08-24 09:02:50.300 ,1,0,2.,1.2,1.,1.2,0.,1.2,,0.0,,0.0
1981-08-24 09:02:51.500 ,1,0,0.,1.2,0.,1.2,0.,1.2,,0.0,,0.0
1981-08-24 09:02:52.700 ,1,0,0.,1.2,0.,1.2,0.,1.2,,0.0,,0.0
1981-08-24 09:02:53.900 ,1,0,0.,1.2,0.,1.2,0.,1.2,,0.0,,0.0
1981-08-24 09:02:55.100 ,1,0,0.,1.2,0.,1.2,0.,1.2,,0.0,,0.0
1981-08-24 09:02:56.300 ,1,0,0.,1.2,0.,1.2,0.,1.2,,0.0,,0.0
1981-08-24 09:02:57.500 ,1,0,0.,1.2,0.,1.2,0.,1.2,,0.0,,0.0
1981-08-24 09:02:58.700 ,1,0,0.,1.2,0.,1.2,0.,1.2,,0.0,,0.0
1981-08-24 09:02:59.900 ,1,0,0.,1.2,0.,1.2,0.,1.2,,0.0,,0.0
1981-08-24 09:03:01.100 ,1,0,0.,1.2,0.,1.2,0.,1.2,,0.0,,0.0
1981-08-24 09:03:02.300 ,1,0,0.,1.2,0.,1.2,0.,1.2,,0.0,,0.0
1981-08-24 09:03:03.500 ,1,0,0.,1.2,0.,1.2,0.,1.2,,0.0,,0.0
1981-08-24 09:03:04.700 ,1,0,0.,1.2,0.,1.2,0.,1.2,,0.0,,0.0
1981-08-24 09:03:05.900 ,1,0,0.,1.2,0.,1.2,0.,1.2,,0.0,,0.0
1981-08-24 09:03:07.100 ,1,0,0.,1.2,0.,1.2,0.,1.2,,0.0,,0.0
1981-08-24 09:03:08.300 ,1,0,0.,1.2,0.,1.2,0.,1.2,,0.0,,0.0
1981-08-24 09:03:09.500 ,1,0,0.,1.2,0.,1.2,0.,1.2,,0.0,,0.0
1981-08-24 09:03:10.700 ,1,0,0.,1.2,0.,1.2,0.,1.2,,0.0,,0.0
1981-08-24 09:03:11.900 ,2,0,0.,1.2,0.,1.2,0.,1.2,,0.0,,0.0
1981-08-24 09:03:13.100 ,2,0,0.,1.2,0.,1.2,0.,1.2,,0.0,,0.0
1981-08-24 09:03:14.300 ,2,0,0.,1.2,0.,1.2,0.,1.2,,0.0,,0.0
1981-08-24 09:03:15.500 ,2,0,0.,1.2,0.,1.2,0.,1.2,,0.0,,0.0
1981-08-24 09:03:16.700 ,2,0,0.,1.2,0.,1.2,0.,1.2,,0.0,,0.0
1981-08-24 09:03:17.900 ,2,0,0.,1.2,0.,1.2,0.,1.2,,0.0,,0.0
1981-08-24 09:03:19.100 ,2,0,0.,1.2,0.,1.2,0.,1.2,,0.0,,0.0
1981-08-24 09:03:20.300 ,2,0,0.,1.2,0.,1.2,0.,1.2,,0.0,,0.0
1981-08-24 09:03:21.500 ,2,0,0.,1.2,0.,1.2,0.,1.2,,0.0,,0.0
1981-08-24 09:03:22.700 ,2,0,0.,1.2,0.,1.2,0.,1.2,,0.0,,0.0
1981-08-24 09:03:23.900 ,2,0,0.,1.2,0.,1.2,0.,1.2,,0.0,,0.0
1981-08-24 09:03:25.100 ,2,0,0.,1.2,0.,1.2,0.,1.2,,0.0,,0.0
1981-08-24 09:03:26.300 ,2,0,0.,1.2,0.,1.2,0.,1.2,,0.0,,0.0
1981-08-24 09:03:27.500 ,2,0,0.,1.2,0.,1.2,0.,1.2,,0.0,,0.0
1981-08-24 09:03:28.700 ,2,0,0.,1.2,0.,1.2,0.,1.2,,0.0,,0.0
1981-08-24 09:03:29.900 ,2,0,0.,1.2,0.,1.2,0.,1.2,,0.0,,0.0
1981-08-24 09:03:31.100 ,2,0,2.,1.2,0.,1.2,0.,1.2,,0.0,,0.0
1981-08-24 09:03:32.300 ,2,0,0.,1.2,0.,1.2,0.,1.2,,0.0,,0.0
1981-08-24 09:03:33.500 ,2,0,0.,1.2,0.,1.2,0.,1.2,,0.0,,0.0
1981-08-24 09:03:34.700 ,2,0,1.,1.2,1.,1.2,0.,1.2,,0.0,,0.0
1981-08-24 09:03:35.900 ,3,0,0.,1.2,0.,1.2,0.,1.2,,0.0,,0.0
1981-08-24 09:03:37.100 ,3,0,0.,1.2,0.,1.2,0.,1.2,,0.0,,0.0
1981-08-24 09:03:38.300 ,3,0,0.,1.2,0.,1.2,0.,1.2,,0.0,,0.0
1981-08-24 09:03:39.500 ,3,0,0.,1.2,0.,1.2,0.,1.2,,0.0,,0.0
1981-08-24 09:03:40.700 ,3,0,0.,1.2,0.,1.2,0.,1.2,,0.0,,0.0
1981-08-24 09:03:41.900 ,3,0,0.,1.2,0.,1.2,0.,1.2,,0.0,,0.0
1981-08-24 09:03:43.100 ,3,0,0.,1.2,0.,1.2,0.,1.2,,0.0,,0.0
1981-08-24 09:03:44.300 ,3,0,0.,1.2,0.,1.2,0.,1.2,,0.0,,0.0
1981-08-24 09:03:45.500 ,3,0,0.,1.2,0.,1.2,0.,1.2,,0.0,,0.0
1981-08-24 09:03:46.700 ,3,0,0.,1.2,0.,1.2,0.,1.2,,0.0,,0.0
1981-08-24 09:03:47.900 ,3,0,0.,1.2,0.,1.2,0.,1.2,,0.0,,0.0
1981-08-24 09:03:49.100 ,3,0,0.,1.2,0.,1.2,0.,1.2,,0.0,,0.0
1981-08-24 09:03:50.300 ,3,0,0.,1.2,0.,1.2,0.,1.2,,0.0,,0.0
1981-08-24 09:03:51.500 ,3,0,0.,1.2,0.,1.2,0.,1.2,,0.0,,0.0
1981-08-24 09:03:52.700 ,3,0,0.,1.2,0.,1.2,0.,1.2,,0.0,,0.0
1981-08-24 09:03:53.900 ,3,0,1.,1.2,0.,1.2,0.,1.2,,0.0,,0.0
1981-08-24 09:03:55.100 ,3,0,0.,1.2,0.,1.2,0.,1.2,,0.0,,0.0
1981-08-24 09:03:56.300 ,3,0,1.,1.2,1.,1.2,0.,1.2,,0.0,,0.0
1981-08-24 09:03:57.500 ,3,0,0.,1.2,0.,1.2,0.,1.2,,0.0,,0.0
1981-08-24 09:03:58.700 ,3,0,0.,1.2,0.,1.2,0.,1.2,,0.0,,0.0
1981-08-24 09:03:59.900 ,4,0,2.,1.2,1.,1.2,0.,1.2,,0.0,,0.0
1981-08-24 09:04:01.100 ,4,0,0.,1.2,0.,1.2,0.,1.2,,0.0,,0.0
1981-08-24 09:04:02.300 ,4,0,0.,1.2,0.,1.2,0.,1.2,,0.0,,0.0
1981-08-24 09:04:03.500 ,4,0,1.,1.2,1.,1.2,0.,1.2,,0.0,,0.0
1981-08-24 09:04:04.700 ,4,0,0.,1.2,0.,1.2,0.,1.2,,0.0,,0.0
1981-08-24 09:04:05.900 ,4,0,0.,1.2,0.,1.2,0.,1.2,,0.0,,0.0
1981-08-24 09:04:07.100 ,4,0,0.,1.2,0.,1.2,0.,1.2,,0.0,,0.0
1981-08-24 09:04:08.300 ,4,0,0.,1.2,0.,1.2,0.,1.2,,0.0,,0.0
1981-08-24 09:04:09.500 ,4,0,1.,1.2,1.,1.2,0.,1.2,,0.0,,0.0
1981-08-24 09:04:10.700 ,4,0,1.,1.2,0.,1.2,0.,1.2,,0.0,,0.0
1981-08-24 09:04:11.900 ,4,0,1.,1.2,0.,1.2,0.,1.2,,0.0,,0.0
1981-08-24 09:04:13.100 ,4,0,0.,1.2,0.,1.2,0.,1.2,,0.0,,0.0
1981-08-24 09:04:14.300 ,4,0,0.,1.2,0.,1.2,0.,1.2,,0.0,,0.0
1981-08-24 09:04:15.500 ,4,0,0.,1.2,0.,1.2,0.,1.2,,0.0,,0.0
1981-08-24 09:04:16.700 ,4,0,0.,1.2,0.,1.2,0.,1.2,,0.0,,0.0
1981-08-24 09:04:17.900 ,4,0,0.,1.2,0.,1.2,0.,1.2,,0.0,,0.0
1981-08-24 09:04:19.100 ,4,0,0.,1.2,0.,1.2,0.,1.2,,0.0,,0.0
1981-08-24 09:04:20.300 ,4,0,0.,1.2,0.,1.2,0.,1.2,,0.0,,0.0
1981-08-24 09:04:21.500 ,4,0,0.,1.2,0.,1.2,0.,1.2,,0.0,,0.0
1981-08-24 09:04:22.700 ,4,0,0.,1.2,0.,1.2,0.,1.2,,0.0,,0.0
1981-08-24 09:04:23.900 ,5,0,0.,1.2,0.,1.2,0.,1.2,,0.0,,0.0
1981-08-24 09:04:25.100 ,5,0,0.,1.2,0.,1.2,0.,1.2,,0.0,,0.0
1981-08-24 09:04:26.300 ,5,0,0.,1.2,0.,1.2,0.,1.2,,0.0,,0.0
1981-08-24 09:04:27.500 ,5,0,0.,1.2,0.,1.2,0.,1.2,,0.0,,0.0
1981-08-24 09:04:28.700 ,5,0,0.,1.2,0.,1.2,0.,1.2,,0.0,,0.0
1981-08-24 09:04:29.900 ,5,0,1.,1.2,0.,1.2,0.,1.2,,0.0,,0.0
1981-08-24 09:04:31.100 ,5,0,0.,1.2,0.,1.2,0.,1.2,,0.0,,0.0
1981-08-24 09:04:32.300 ,5,0,0.,1.2,0.,1.2,0.,1.2,,0.0,,0.0
1981-08-24 09:04:33.500 ,5,0,0.,1.2,0.,1.2,0.,1.2,,0.0,,0.0
1981-08-24 09:04:34.700 ,5,0,1.,1.2,1.,1.2,0.,1.2,,0.0,,0.0
1981-08-24 09:04:35.900 ,5,0,1.,1.2,1.,1.2,0.,1.2,,0.0,,0.0
1981-08-24 09:04:37.100 ,5,0,0.,1.2,0.,1.2,0.,1.2,,0.0,,0.0
1981-08-24 09:04:38.300 ,5,0,0.,1.2,0.,1.2,0.,1.2,,0.0,,0.0
1981-08-24 09:04:39.500 ,5,0,0.,1.2,0.,1.2,0.,1.2,,0.0,,0.0
1981-08-24 09:04:40.700 ,5,0,1.,1.2,1.,1.2,0.,1.2,,0.0,,0.0
1981-08-24 09:04:41.900 ,5,0,0.,1.2,0.,1.2,0.,1.2,,0.0,,0.0
1981-08-24 09:04:43.100 ,5,0,0.,1.2,0.,1.2,0.,1.2,,0.0,,0.0
1981-08-24 09:04:44.300 ,5,0,0.,1.2,0.,1.2,0.,1.2,,0.0,,0.0
1981-08-24 09:04:45.500 ,5,0,0.,1.2,0.,1.2,0.,1.2,,0.0,,0.0
1981-08-24 09:04:46.700 ,5,0,0.,1.2,0.,1.2,0.,1.2,,0.0,,0.0
1981-08-24 09:04:47.900 ,6,0,0.,1.2,0.,1.2,0.,1.2,,0.0,,0.0
1981-08-24 09:04:49.100 ,6,0,0.,1.2,0.,1.2,0.,1.2,,0.0,,0.0
1981-08-24 09:04:50.300 ,6,0,0.,1.2,0.,1.2,0.,1.2,,0.0,,0.0
1981-08-24 09:04:51.500 ,6,0,0.,1.2,0.,1.2,0.,1.2,,0.0,,0.0
1981-08-24 09:04:52.700 ,6,0,1.,1.2,1.,1.2,0.,1.2,,0.0,,0.0
1981-08-24 09:04:53.900 ,6,0,0.,1.2,0.,1.2,0.,1.2,,0.0,,0.0
1981-08-24 09:04:55.100 ,6,0,0.,1.2,0.,1.2,0.,1.2,,0.0,,0.0
1981-08-24 09:04:56.300 ,6,0,0.,1.2,0.,1.2,0.,1.2,,0.0,,0.0
1981-08-24 09:04:57.500 ,6,0,0.,1.2,0.,1.2,0.,1.2,,0.0,,0.0
1981-08-24 09:04:58.700 ,6,0,0.,1.2,0.,1.2,0.,1.2,,0.0,,0.0
1981-08-24 09:04:59.900 ,6,0,0.,1.2,0.,1.2,0.,1.2,,0.0,,0.0
1981-08-24 09:05:01.100 ,6,0,0.,1.2,0.,1.2,0.,1.2,,0.0,,0.0
1981-08-24 09:05:02.300 ,6,0,0.,1.2,0.,1.2,0.,1.2,,0.0,,0.0
1981-08-24 09:05:03.500 ,6,0,0.,1.2,0.,1.2,0.,1.2,,0.0,,0.0
1981-08-24 09:05:04.700 ,6,0,0.,1.2,0.,1.2,0.,1.2,,0.0,,0.0
1981-08-24 09:05:05.900 ,6,0,0.,1.2,0.,1.2,0.,1.2,,0.0,,0.0
1981-08-24 09:05:07.100 ,6,0,0.,1.2,0.,1.2,0.,1.2,,0.0,,0.0
1981-08-24 09:05:08.300 ,6,0,0.,1.2,0.,1.2,0.,1.2,,0.0,,0.0
1981-08-24 09:05:09.500 ,6,0,1.,1.2,0.,1.2,0.,1.2,,0.0,,0.0
1981-08-24 09:05:10.700 ,6,0,0.,1.2,0.,1.2,0.,1.2,,0.0,,0.0
1981-08-24 09:05:11.900 ,7,0,0.,1.2,0.,1.2,0.,1.2,,0.0,,0.0
1981-08-24 09:05:13.100 ,7,0,0.,1.2,0.,1.2,0.,1.2,,0.0,,0.0
1981-08-24 09:05:14.300 ,7,0,0.,1.2,0.,1.2,0.,1.2,,0.0,,0.0
1981-08-24 09:05:15.500 ,7,0,0.,1.2,0.,1.2,0.,1.2,,0.0,,0.0
1981-08-24 09:05:16.700 ,7,0,0.,1.2,0.,1.2,0.,1.2,,0.0,,0.0
1981-08-24 09:05:17.900 ,7,0,0.,1.2,0.,1.2,0.,1.2,,0.0,,0.0
1981-08-24 09:05:19.100 ,7,0,1.,1.2,1.,1.2,1.,1.2,,0.0,,0.0
1981-08-24 09:05:20.300 ,7,0,0.,1.2,0.,1.2,0.,1.2,,0.0,,0.0
1981-08-24 09:05:21.500 ,7,0,1.,1.2,0.,1.2,0.,1.2,,0.0,,0.0
1981-08-24 09:05:22.700 ,7,0,0.,1.2,0.,1.2,0.,1.2,,0.0,,0.0
1981-08-24 09:05:23.900 ,7,0,0.,1.2,0.,1.2,0.,1.2,,0.0,,0.0
1981-08-24 09:05:25.100 ,7,0,0.,1.2,0.,1.2,0.,1.2,,0.0,,0.0
1981-08-24 09:05:26.300 ,7,0,0.,1.2,0.,1.2,0.,1.2,,0.0,,0.0
1981-08-24 09:05:27.500 ,7,0,0.,1.2,0.,1.2,0.,1.2,,0.0,,0.0
1981-08-24 09:05:28.700 ,7,0,0.,1.2,0.,1.2,0.,1.2,,0.0,,0.0
1981-08-24 09:05:29.900 ,7,0,0.,1.2,0.,1.2,0.,1.2,,0.0,,0.0
1981-08-24 09:05:31.100 ,7,0,0.,1.2,0.,1.2,0.,1.2,,0.0,,0.0
1981-08-24 09:05:32.300 ,7,0,0.,1.2,0.,1.2,0.,1.2,,0.0,,0.0
1981-08-24 09:05:33.500 ,7,0,0.,1.2,0.,1.2,0.,1.2,,0.0,,0.0
1981-08-24 09:05:34.700 ,7,0,0.,1.2,0.,1.2,0.,1.2,,0.0,,0.0
1981-08-24 09:05:35.900 ,7,0,0.,1.2,0.,1.2,0.,1.2,,0.0,,0.0
1981-08-24 09:05:37.100 ,7,0,0.,1.2,0.,1.2,0.,1.2,,0.0,,0.0
1981-08-24 09:05:38.300 ,7,0,0.,1.2,0.,1.2,0.,1.2,,0.0,,0.0
1981-08-24 09:05:39.500 ,7,0,0.,1.2,0.,1.2,0.,1.2,,0.0,,0.0
1981-08-24 09:05:40.700 ,7,0,0.,1.2,0.,1.2,0.,1.2,,0.0,,0.0
1981-08-24 09:05:41.900 ,7,0,0.,1.2,0.,1.2,0.,1.2,,0.0,,0.0
1981-08-24 09:05:43.100 ,7,0,1.,1.2,1.,1.2,0.,1.2,,0.0,,0.0
1981-08-24 09:05:44.300 ,7,0,0.,1.2,0.,1.2,0.,1.2,,0.0,,0.0
1981-08-24 09:05:45.500 ,7,0,0.,1.2,0.,1.2,0.,1.2,,0.0,,0.0
1981-08-24 09:05:46.700 ,7,0,1.,1.2,0.,1.2,0.,1.2,,0.0,,0.0
1981-08-24 09:05:47.900 ,7,0,0.,1.2,0.,1.2,0.,1.2,,0.0,,0.0
1981-08-24 09:05:49.100 ,7,0,0.,1.2,0.,1.2,0.,1.2,,0.0,,0.0
1981-08-24 09:05:50.300 ,7,0,0.,1.2,0.,1.2,0.,1.2,,0.0,,0.0
1981-08-24 09:05:51.500 ,7,0,0.,1.2,0.,1.2,0.,1.2,,0.0,,0.0
1981-08-24 09:05:52.700 ,7,0,0.,1.2,0.,1.2,0.,1.2,,0.0,,0.0
1981-08-24 09:05:53.900 ,7,0,0.,1.2,0.,1.2,0.,1.2,,0.0,,0.0
1981-08-24 09:05:55.100 ,7,0,0.,1.2,0.,1.2,0.,1.2,,0.0,,0.0
1981-08-24 09:05:56.300 ,7,0,1.,1.2,1.,1.2,1.,1.2,,0.0,,0.0
1981-08-24 09:05:57.500 ,7,0,0.,1.2,0.,1.2,0.,1.2,,0.0,,0.0
1981-08-24 09:05:58.700 ,7,0,0.,1.2,0.,1.2,0.,1.2,,0.0,,0.0
1981-08-24 09:05:59.900 ,7,0,0.,1.2,0.,1.2,0.,1.2,,0.0,,0.0
1981-08-24 09:06:01.100 ,7,0,0.,1.2,0.,1.2,0.,1.2,,0.0,,0.0
1981-08-24 09:06:02.300 ,7,0,0.,1.2,0.,1.2,0.,1.2,,0.0,,0.0
1981-08-24 09:06:03.500 ,7,0,0.,1.2,0.,1.2,0.,1.2,,0.0,,0.0
1981-08-24 09:06:04.700 ,7,0,1.,1.2,0.,1.2,0.,1.2,,0.0,,0.0
1981-08-24 09:06:05.900 ,7,0,0.,1.2,0.,1.2,0.,1.2,,0.0,,0.0
1981-08-24 09:06:07.100 ,7,0,0.,1.2,0.,1.2,0.,1.2,,0.0,,0.0
1981-08-24 09:06:08.300 ,7,0,0.,1.2,0.,1.2,0.,1.2,,0.0,,0.0
1981-08-24 09:06:09.500 ,7,0,1.,1.2,0.,1.2,0.,1.2,,0.0,,0.0
1981-08-24 09:06:10.700 ,7,0,0.,1.2,0.,1.2,0.,1.2,,0.0,,0.0
1981-08-24 09:06:11.900 ,7,0,0.,1.2,0.,1.2,0.,1.2,,0.0,,0.0
1981-08-24 09:06:13.100 ,7,0,1.,1.2,0.,1.2,0.,1.2,,0.0,,0.0
1981-08-24 09:06:14.300 ,7,0,0.,1.2,0.,1.2,0.,1.2,,0.0,,0.0
1981-08-24 09:06:15.500 ,7,0,0.,1.2,0.,1.2,0.,1.2,,0.0,,0.0
1981-08-24 09:06:16.700 ,7,0,0.,1.2,0.,1.2,0.,1.2,,0.0,,0.0
1981-08-24 09:06:17.900 ,7,0,0.,1.2,0.,1.2,0.,1.2,,0.0,,0.0
1981-08-24 09:06:19.100 ,7,0,1.,1.2,0.,1.2,0.,1.2,,0.0,,0.0
1981-08-24 09:06:20.300 ,7,0,0.,1.2,0.,1.2,0.,1.2,,0.0,,0.0
1981-08-24 09:06:21.500 ,7,0,0.,1.2,0.,1.2,0.,1.2,,0.0,,0.0
1981-08-24 09:06:22.700 ,7,0,0.,1.2,0.,1.2,0.,1.2,,0.0,,0.0
1981-08-24 09:06:23.900 ,6,0,0.,1.2,0.,1.2,0.,1.2,,0.0,,0.0
1981-08-24 09:06:25.100 ,6,0,0.,1.2,0.,1.2,0.,1.2,,0.0,,0.0
1981-08-24 09:06:26.300 ,6,0,3.,1.2,2.,1.2,2.,1.2,,0.0,,0.0
1981-08-24 09:06:27.500 ,6,0,0.,1.2,0.,1.2,0.,1.2,,0.0,,0.0
1981-08-24 09:06:28.700 ,6,0,1.,1.2,1.,1.2,0.,1.2,,0.0,,0.0
1981-08-24 09:06:29.900 ,6,0,0.,1.2,0.,1.2,0.,1.2,,0.0,,0.0
1981-08-24 09:06:31.100 ,6,0,0.,1.2,0.,1.2,0.,1.2,,0.0,,0.0
1981-08-24 09:06:32.300 ,6,0,0.,1.2,0.,1.2,0.,1.2,,0.0,,0.0
1981-08-24 09:06:33.500 ,6,0,0.,1.2,0.,1.2,0.,1.2,,0.0,,0.0
1981-08-24 09:06:34.700 ,6,0,0.,1.2,0.,1.2,0.,1.2,,0.0,,0.0
1981-08-24 09:06:35.900 ,6,0,0.,1.2,0.,1.2,0.,1.2,,0.0,,0.0
1981-08-24 09:06:37.100 ,6,0,0.,1.2,0.,1.2,0.,1.2,,0.0,,0.0
1981-08-24 09:06:38.300 ,6,0,0.,1.2,0.,1.2,0.,1.2,,0.0,,0.0
1981-08-24 09:06:39.500 ,6,0,1.,1.2,0.,1.2,0.,1.2,,0.0,,0.0
1981-08-24 09:06:40.700 ,6,0,0.,1.2,0.,1.2,0.,1.2,,0.0,,0.0
1981-08-24 09:06:41.900 ,6,0,0.,1.2,0.,1.2,0.,1.2,,0.0,,0.0
1981-08-24 09:06:43.100 ,6,0,1.,1.2,0.,1.2,0.,1.2,,0.0,,0.0
1981-08-24 09:06:44.300 ,6,0,0.,1.2,0.,1.2,0.,1.2,,0.0,,0.0
1981-08-24 09:06:45.500 ,6,0,0.,1.2,0.,1.2,0.,1.2,,0.0,,0.0
1981-08-24 09:06:46.700 ,6,0,0.,1.2,0.,1.2,0.,1.2,,0.0,,0.0
1981-08-24 09:06:47.900 ,6,0,1.,1.2,1.,1.2,0.,1.2,,0.0,,0.0
1981-08-24 09:06:49.100 ,6,0,0.,1.2,0.,1.2,0.,1.2,,0.0,,0.0
1981-08-24 09:06:50.300 ,6,0,3.,1.2,2.,1.2,0.,1.2,,0.0,,0.0
1981-08-24 09:06:51.500 ,6,0,0.,1.2,0.,1.2,0.,1.2,,0.0,,0.0
1981-08-24 09:06:52.700 ,6,0,0.,1.2,0.,1.2,0.,1.2,,0.0,,0.0
1981-08-24 09:06:53.900 ,6,0,1.,1.2,1.,1.2,0.,1.2,,0.0,,0.0
1981-08-24 09:06:55.100 ,6,0,0.,1.2,0.,1.2,0.,1.2,,0.0,,0.0
1981-08-24 09:06:56.300 ,6,0,0.,1.2,0.,1.2,0.,1.2,,0.0,,0.0
1981-08-24 09:06:57.500 ,6,0,0.,1.2,0.,1.2,0.,1.2,,0.0,,0.0
1981-08-24 09:06:58.700 ,6,0,0.,1.2,0.,1.2,0.,1.2,,0.0,,0.0
1981-08-24 09:06:59.900 ,6,0,0.,1.2,0.,1.2,0.,1.2,,0.0,,0.0
1981-08-24 09:07:01.100 ,6,0,1.,1.2,1.,1.2,1.,1.2,,0.0,,0.0
1981-08-24 09:07:02.300 ,6,0,0.,1.2,0.,1.2,0.,1.2,,0.0,,0.0
1981-08-24 09:07:03.500 ,6,0,0.,1.2,0.,1.2,0.,1.2,,0.0,,0.0
1981-08-24 09:07:04.700 ,6,0,0.,1.2,0.,1.2,0.,1.2,,0.0,,0.0
1981-08-24 09:07:05.900 ,6,0,0.,1.2,0.,1.2,0.,1.2,,0.0,,0.0
1981-08-24 09:07:07.100 ,6,0,0.,1.2,0.,1.2,0.,1.2,,0.0,,0.0
1981-08-24 09:07:08.300 ,6,0,0.,1.2,0.,1.2,0.,1.2,,0.0,,0.0
1981-08-24 09:07:09.500 ,6,0,1.,1.2,0.,1.2,0.,1.2,,0.0,,0.0
1981-08-24 09:07:10.700 ,6,0,0.,1.2,0.,1.2,0.,1.2,,0.0,,0.0
1981-08-24 09:07:11.900 ,5,0,0.,1.2,0.,1.2,0.,1.2,,0.0,,0.0
1981-08-24 09:07:13.100 ,5,0,0.,1.2,0.,1.2,0.,1.2,,0.0,,0.0
1981-08-24 09:07:14.300 ,5,0,0.,1.2,0.,1.2,0.,1.2,,0.0,,0.0
1981-08-24 09:07:15.500 ,5,0,0.,1.2,0.,1.2,0.,1.2,,0.0,,0.0
1981-08-24 09:07:16.700 ,5,0,0.,1.2,0.,1.2,0.,1.2,,0.0,,0.0
1981-08-24 09:07:17.900 ,5,0,0.,1.2,0.,1.2,0.,1.2,,0.0,,0.0
1981-08-24 09:07:19.100 ,5,0,0.,1.2,0.,1.2,0.,1.2,,0.0,,0.0
1981-08-24 09:07:20.300 ,5,0,0.,1.2,0.,1.2,0.,1.2,,0.0,,0.0
1981-08-24 09:07:21.500 ,5,0,0.,1.2,0.,1.2,0.,1.2,,0.0,,0.0
1981-08-24 09:07:22.700 ,5,0,0.,1.2,0.,1.2,0.,1.2,,0.0,,0.0
1981-08-24 09:07:23.900 ,5,0,2.,1.2,1.,1.2,1.,1.2,,0.0,,0.0
1981-08-24 09:07:25.100 ,5,0,1.,1.2,1.,1.2,0.,1.2,,0.0,,0.0
1981-08-24 09:07:26.300 ,5,0,0.,1.2,0.,1.2,0.,1.2,,0.0,,0.0
1981-08-24 09:07:27.500 ,5,0,0.,1.2,0.,1.2,0.,1.2,,0.0,,0.0
1981-08-24 09:07:28.700 ,5,0,0.,1.2,0.,1.2,0.,1.2,,0.0,,0.0
1981-08-24 09:07:29.900 ,5,0,2.,1.2,1.,1.2,0.,1.2,,0.0,,0.0
1981-08-24 09:07:31.100 ,5,0,0.,1.2,0.,1.2,0.,1.2,,0.0,,0.0
1981-08-24 09:07:32.300 ,5,0,0.,1.2,0.,1.2,0.,1.2,,0.0,,0.0
1981-08-24 09:07:33.500 ,5,0,1.,1.2,0.,1.2,0.,1.2,,0.0,,0.0
1981-08-24 09:07:34.700 ,5,0,1.,1.2,0.,1.2,0.,1.2,,0.0,,0.0
1981-08-24 09:07:35.900 ,5,0,0.,1.2,0.,1.2,0.,1.2,,0.0,,0.0
1981-08-24 09:07:37.100 ,5,0,0.,1.2,0.,1.2,0.,1.2,,0.0,,0.0
1981-08-24 09:07:38.300 ,5,0,0.,1.2,0.,1.2,0.,1.2,,0.0,,0.0
1981-08-24 09:07:39.500 ,5,0,0.,1.2,0.,1.2,0.,1.2,,0.0,,0.0
1981-08-24 09:07:40.700 ,5,0,0.,1.2,0.,1.2,0.,1.2,,0.0,,0.0
1981-08-24 09:07:41.900 ,5,0,0.,1.2,0.,1.2,0.,1.2,,0.0,,0.0
1981-08-24 09:07:43.100 ,5,0,0.,1.2,0.,1.2,0.,1.2,,0.0,,0.0
1981-08-24 09:07:44.300 ,5,0,0.,1.2,0.,1.2,0.,1.2,,0.0,,0.0
1981-08-24 09:07:45.500 ,5,0,0.,1.2,0.,1.2,0.,1.2,,0.0,,0.0
1981-08-24 09:07:46.700 ,5,0,0.,1.2,0.,1.2,0.,1.2,,0.0,,0.0
1981-08-24 09:07:47.900 ,5,0,1.,1.2,0.,1.2,0.,1.2,,0.0,,0.0
1981-08-24 09:07:49.100 ,5,0,0.,1.2,0.,1.2,0.,1.2,,0.0,,0.0
1981-08-24 09:07:50.300 ,5,0,0.,1.2,0.,1.2,0.,1.2,,0.0,,0.0
1981-08-24 09:07:51.500 ,5,0,1.,1.2,1.,1.2,0.,1.2,,0.0,,0.0
1981-08-24 09:07:52.700 ,5,0,0.,1.2,0.,1.2,0.,1.2,,0.0,,0.0
1981-08-24 09:07:53.900 ,5,0,0.,1.2,0.,1.2,0.,1.2,,0.0,,0.0
1981-08-24 09:07:55.100 ,5,0,0.,1.2,0.,1.2,0.,1.2,,0.0,,0.0
1981-08-24 09:07:56.300 ,5,0,0.,1.2,0.,1.2,0.,1.2,,0.0,,0.0
1981-08-24 09:07:57.500 ,5,0,0.,1.2,0.,1.2,0.,1.2,,0.0,,0.0
1981-08-24 09:07:58.700 ,5,0,0.,1.2,0.,1.2,0.,1.2,,0.0,,0.0
1981-08-24 09:07:59.900 ,4,0,0.,1.2,0.,1.2,0.,1.2,,0.0,,0.0
1981-08-24 09:08:01.100 ,4,0,0.,1.2,0.,1.2,0.,1.2,,0.0,,0.0
1981-08-24 09:08:02.300 ,4,0,0.,1.2,0.,1.2,0.,1.2,,0.0,,0.0
1981-08-24 09:08:03.500 ,4,0,1.,1.2,1.,1.2,0.,1.2,,0.0,,0.0
1981-08-24 09:08:04.700 ,4,0,0.,1.2,0.,1.2,0.,1.2,,0.0,,0.0
1981-08-24 09:08:05.900 ,4,0,0.,1.2,0.,1.2,0.,1.2,,0.0,,0.0
1981-08-24 09:08:07.100 ,4,0,0.,1.2,0.,1.2,0.,1.2,,0.0,,0.0
1981-08-24 09:08:08.300 ,4,0,0.,1.2,0.,1.2,0.,1.2,,0.0,,0.0
1981-08-24 09:08:09.500 ,4,0,0.,1.2,0.,1.2,0.,1.2,,0.0,,0.0
1981-08-24 09:08:10.700 ,4,0,0.,1.2,0.,1.2,0.,1.2,,0.0,,0.0
1981-08-24 09:08:11.900 ,4,0,0.,1.2,0.,1.2,0.,1.2,,0.0,,0.0
1981-08-24 09:08:13.100 ,4,0,1.,1.2,1.,1.2,1.,1.2,,0.0,,0.0
1981-08-24 09:08:14.300 ,4,0,1.,1.2,0.,1.2,0.,1.2,,0.0,,0.0
1981-08-24 09:08:15.500 ,4,0,0.,1.2,0.,1.2,0.,1.2,,0.0,,0.0
1981-08-24 09:08:16.700 ,4,0,1.,1.2,1.,1.2,1.,1.2,,0.0,,0.0
1981-08-24 09:08:17.900 ,4,0,0.,1.2,0.,1.2,0.,1.2,,0.0,,0.0
1981-08-24 09:08:19.100 ,4,0,0.,1.2,0.,1.2,0.,1.2,,0.0,,0.0
1981-08-24 09:08:20.300 ,4,0,0.,1.2,0.,1.2,0.,1.2,,0.0,,0.0
1981-08-24 09:08:21.500 ,4,0,0.,1.2,0.,1.2,0.,1.2,,0.0,,0.0
1981-08-24 09:08:22.700 ,4,0,0.,1.2,0.,1.2,0.,1.2,,0.0,,0.0
1981-08-24 09:08:23.900 ,4,0,1.,1.2,1.,1.2,1.,1.2,,0.0,,0.0
1981-08-24 09:08:25.100 ,4,0,0.,1.2,0.,1.2,0.,1.2,,0.0,,0.0
1981-08-24 09:08:26.300 ,4,0,0.,1.2,0.,1.2,0.,1.2,,0.0,,0.0
1981-08-24 09:08:27.500 ,4,0,0.,1.2,0.,1.2,0.,1.2,,0.0,,0.0
1981-08-24 09:08:28.700 ,4,0,0.,1.2,0.,1.2,0.,1.2,,0.0,,0.0
1981-08-24 09:08:29.900 ,4,0,1.,1.2,0.,1.2,0.,1.2,,0.0,,0.0
1981-08-24 09:08:31.100 ,4,0,0.,1.2,0.,1.2,0.,1.2,,0.0,,0.0
1981-08-24 09:08:32.300 ,4,0,0.,1.2,0.,1.2,0.,1.2,,0.0,,0.0
1981-08-24 09:08:33.500 ,4,0,1.,1.2,0.,1.2,0.,1.2,,0.0,,0.0
1981-08-24 09:08:34.700 ,4,0,0.,1.2,0.,1.2,0.,1.2,,0.0,,0.0
1981-08-24 09:08:35.900 ,4,0,0.,1.2,0.,1.2,0.,1.2,,0.0,,0.0
1981-08-24 09:08:37.100 ,4,0,1.,1.2,1.,1.2,0.,1.2,,0.0,,0.0
1981-08-24 09:08:38.300 ,4,0,0.,1.2,0.,1.2,0.,1.2,,0.0,,0.0
1981-08-24 09:08:39.500 ,4,0,0.,1.2,0.,1.2,0.,1.2,,0.0,,0.0
1981-08-24 09:08:40.700 ,4,0,1.,1.2,1.,1.2,0.,1.2,,0.0,,0.0
1981-08-24 09:08:41.900 ,4,0,0.,1.2,0.,1.2,0.,1.2,,0.0,,0.0
1981-08-24 09:08:43.100 ,4,0,1.,1.2,1.,1.2,1.,1.2,,0.0,,0.0
1981-08-24 09:08:44.300 ,4,0,0.,1.2,0.,1.2,0.,1.2,,0.0,,0.0
1981-08-24 09:08:45.500 ,4,0,0.,1.2,0.,1.2,0.,1.2,,0.0,,0.0
1981-08-24 09:08:46.700 ,4,0,0.,1.2,0.,1.2,0.,1.2,,0.0,,0.0
1981-08-24 09:08:47.900 ,3,0,0.,1.2,0.,1.2,0.,1.2,,0.0,,0.0
1981-08-24 09:08:49.100 ,3,0,0.,1.2,0.,1.2,0.,1.2,,0.0,,0.0
1981-08-24 09:08:50.300 ,3,0,0.,1.2,0.,1.2,0.,1.2,,0.0,,0.0
1981-08-24 09:08:51.500 ,3,0,0.,1.2,0.,1.2,0.,1.2,,0.0,,0.0
1981-08-24 09:08:52.700 ,3,0,2.,1.2,1.,1.2,0.,1.2,,0.0,,0.0
1981-08-24 09:08:53.900 ,3,0,0.,1.2,0.,1.2,0.,1.2,,0.0,,0.0
1981-08-24 09:08:55.100 ,3,0,0.,1.2,0.,1.2,0.,1.2,,0.0,,0.0
1981-08-24 09:08:56.300 ,3,0,2.,1.2,1.,1.2,0.,1.2,,0.0,,0.0
1981-08-24 09:08:57.500 ,3,0,0.,1.2,0.,1.2,0.,1.2,,0.0,,0.0
1981-08-24 09:08:58.700 ,3,0,1.,1.2,0.,1.2,0.,1.2,,0.0,,0.0
1981-08-24 09:08:59.900 ,3,0,0.,1.2,0.,1.2,0.,1.2,,0.0,,0.0
1981-08-24 09:09:01.100 ,3,0,0.,1.2,0.,1.2,0.,1.2,,0.0,,0.0
1981-08-24 09:09:02.300 ,3,0,0.,1.2,0.,1.2,0.,1.2,,0.0,,0.0
1981-08-24 09:09:03.500 ,3,0,0.,1.2,0.,1.2,0.,1.2,,0.0,,0.0
1981-08-24 09:09:04.700 ,3,0,0.,1.2,0.,1.2,0.,1.2,,0.0,,0.0
1981-08-24 09:09:05.900 ,3,0,0.,1.2,0.,1.2,0.,1.2,,0.0,,0.0
1981-08-24 09:09:07.100 ,3,0,2.,1.2,2.,1.2,0.,1.2,,0.0,,0.0
1981-08-24 09:09:08.300 ,3,0,1.,1.2,0.,1.2,0.,1.2,,0.0,,0.0
1981-08-24 09:09:09.500 ,3,0,0.,1.2,0.,1.2,0.,1.2,,0.0,,0.0
1981-08-24 09:09:10.700 ,3,0,0.,1.2,0.,1.2,0.,1.2,,0.0,,0.0
1981-08-24 09:09:11.900 ,3,0,0.,1.2,0.,1.2,0.,1.2,,0.0,,0.0
1981-08-24 09:09:13.100 ,3,0,1.,1.2,0.,1.2,0.,1.2,,0.0,,0.0
1981-08-24 09:09:14.300 ,3,0,0.,1.2,0.,1.2,0.,1.2,,0.0,,0.0
1981-08-24 09:09:15.500 ,3,0,0.,1.2,0.,1.2,0.,1.2,,0.0,,0.0
1981-08-24 09:09:16.700 ,3,0,0.,1.2,0.,1.2,0.,1.2,,0.0,,0.0
1981-08-24 09:09:17.900 ,3,0,0.,1.2,0.,1.2,0.,1.2,,0.0,,0.0
1981-08-24 09:09:19.100 ,3,0,1.,1.2,0.,1.2,0.,1.2,,0.0,,0.0
1981-08-24 09:09:20.300 ,3,0,0.,1.2,0.,1.2,0.,1.2,,0.0,,0.0
1981-08-24 09:09:21.500 ,3,0,0.,1.2,0.,1.2,0.,1.2,,0.0,,0.0
1981-08-24 09:09:22.700 ,3,0,0.,1.2,0.,1.2,0.,1.2,,0.0,,0.0
1981-08-24 09:09:23.900 ,3,0,1.,1.2,0.,1.2,0.,1.2,,0.0,,0.0
1981-08-24 09:09:25.100 ,3,0,0.,1.2,0.,1.2,0.,1.2,,0.0,,0.0
1981-08-24 09:09:26.300 ,3,0,0.,1.2,0.,1.2,0.,1.2,,0.0,,0.0
1981-08-24 09:09:27.500 ,3,0,0.,1.2,0.,1.2,0.,1.2,,0.0,,0.0
1981-08-24 09:09:28.700 ,3,0,0.,1.2,0.,1.2,0.,1.2,,0.0,,0.0
1981-08-24 09:09:29.900 ,3,0,0.,1.2,0.,1.2,0.,1.2,,0.0,,0.0
1981-08-24 09:09:31.100 ,3,0,0.,1.2,0.,1.2,0.,1.2,,0.0,,0.0
1981-08-24 09:09:32.300 ,3,0,0.,1.2,0.,1.2,0.,1.2,,0.0,,0.0
1981-08-24 09:09:33.500 ,3,0,0.,1.2,0.,1.2,0.,1.2,,0.0,,0.0
1981-08-24 09:09:34.700 ,3,0,0.,1.2,0.,1.2,0.,1.2,,0.0,,0.0
1981-08-24 09:09:35.900 ,2,0,0.,1.2,0.,1.2,0.,1.2,,0.0,,0.0
1981-08-24 09:09:37.100 ,2,0,0.,1.2,0.,1.2,0.,1.2,,0.0,,0.0
1981-08-24 09:09:38.300 ,2,0,0.,1.2,0.,1.2,0.,1.2,,0.0,,0.0
1981-08-24 09:09:39.500 ,2,0,0.,1.2,0.,1.2,0.,1.2,,0.0,,0.0
1981-08-24 09:09:40.700 ,2,0,0.,1.2,0.,1.2,0.,1.2,,0.0,,0.0
1981-08-24 09:09:41.900 ,2,0,0.,1.2,0.,1.2,0.,1.2,,0.0,,0.0
1981-08-24 09:09:43.100 ,2,0,0.,1.2,0.,1.2,0.,1.2,,0.0,,0.0
1981-08-24 09:09:44.300 ,2,0,1.,1.2,0.,1.2,0.,1.2,,0.0,,0.0
1981-08-24 09:09:45.500 ,2,0,0.,1.2,0.,1.2,0.,1.2,,0.0,,0.0
1981-08-24 09:09:46.700 ,2,0,1.,1.2,1.,1.2,1.,1.2,,0.0,,0.0
1981-08-24 09:09:47.900 ,2,0,0.,1.2,0.,1.2,0.,1.2,,0.0,,0.0
1981-08-24 09:09:49.100 ,2,0,0.,1.2,0.,1.2,0.,1.2,,0.0,,0.0
1981-08-24 09:09:50.300 ,2,0,0.,1.2,0.,1.2,0.,1.2,,0.0,,0.0
1981-08-24 09:09:51.500 ,2,0,0.,1.2,0.,1.2,0.,1.2,,0.0,,0.0
1981-08-24 09:09:52.700 ,2,0,0.,1.2,0.,1.2,0.,1.2,,0.0,,0.0
1981-08-24 09:09:53.900 ,2,0,0.,1.2,0.,1.2,0.,1.2,,0.0,,0.0
1981-08-24 09:09:55.100 ,2,0,0.,1.2,0.,1.2,0.,1.2,,0.0,,0.0
1981-08-24 09:09:56.300 ,2,0,0.,1.2,0.,1.2,0.,1.2,,0.0,,0.0
1981-08-24 09:09:57.500 ,2,0,0.,1.2,0.,1.2,0.,1.2,,0.0,,0.0
1981-08-24 09:09:58.700 ,2,0,1.,1.2,1.,1.2,0.,1.2,,0.0,,0.0
1981-08-24 09:09:59.900 ,2,0,0.,1.2,0.,1.2,0.,1.2,,0.0,,0.0
1981-08-24 09:10:01.100 ,2,0,1.,1.2,0.,1.2,0.,1.2,,0.0,,0.0
1981-08-24 09:10:02.300 ,2,0,0.,1.2,0.,1.2,0.,1.2,,0.0,,0.0
1981-08-24 09:10:03.500 ,2,0,1.,1.2,0.,1.2,0.,1.2,,0.0,,0.0
1981-08-24 09:10:04.700 ,2,0,2.,1.2,1.,1.2,0.,1.2,,0.0,,0.0
1981-08-24 09:10:05.900 ,2,0,0.,1.2,0.,1.2,0.,1.2,,0.0,,0.0
1981-08-24 09:10:07.100 ,2,0,0.,1.2,0.,1.2,0.,1.2,,0.0,,0.0
1981-08-24 09:10:08.300 ,2,0,1.,1.2,1.,1.2,1.,1.2,,0.0,,0.0
1981-08-24 09:10:09.500 ,2,0,0.,1.2,0.,1.2,0.,1.2,,0.0,,0.0
1981-08-24 09:10:10.700 ,2,0,0.,1.2,0.,1.2,0.,1.2,,0.0,,0.0
1981-08-24 09:10:11.900 ,2,0,0.,1.2,0.,1.2,0.,1.2,,0.0,,0.0
1981-08-24 09:10:13.100 ,2,0,0.,1.2,0.,1.2,0.,1.2,,0.0,,0.0
1981-08-24 09:10:14.300 ,2,0,0.,1.2,0.,1.2,0.,1.2,,0.0,,0.0